This demonstration page uses our WeatherBlox Daily Observations layout. Learn more.

Left ArrowRight Arrow

Hourly Observations for May 15, 2019

Temp ( °F °C ) Dew Point ( °F °C ) Humidity (%) Winds ( mph kmh ) Pressure ( in mb ) Visibility ( mi km ) Precip ( " mm )
12:52 am 00:52 Clear 64 17.8 58 14.4 81 81 S 10 17 29.91 1013 10 16 0.00 0.00
1:52 am 01:52 Clear 63 17.2 58 14.4 84 84 S 8 13 29.91 1013 10 16 0.00 0.00
2:52 am 02:52 Partly Cloudy 62 16.7 58 14.4 86 86 S 7 11 29.90 1012 10 16 0.00 0.00
3:52 am 03:52 Clear 64 17.8 57 13.9 78 78 SW 8 13 29.89 1012 10 16 0.00 0.00
4:52 am 04:52 Partly Cloudy 65 18.3 57 13.9 76 76 SW 9 15 29.88 1012 10 16 0.00 0.00
5:52 am 05:52 Mostly Cloudy 66 18.9 57 13.9 73 73 SW 10 17 29.89 1012 10 16 0.00 0.00
6:52 am 06:52 Cloudy 67 19.4 58 14.4 73 73 WSW 9 15 29.91 1013 10 16 0.00 0.00
7:52 am 07:52 Sunny 70 21.1 59 15 68 68 WSW 12 19 29.93 1014 10 16 0.00 0.00
8:52 am 08:52 Sunny 73 22.8 60 15.6 64 64 W 13 20 29.94 1014 10 16 0.00 0.00
9:52 am 09:52 Sunny 75 23.9 60 15.6 60 60 W 14 22 29.95 1014 10 16 0.00 0.00
10:52 am 10:52 Sunny 77 25 62 16.7 60 60 WNW 12 19 29.95 1014 10 16 0.00 0.00
11:52 am 11:52 Sunny 79 26.1 62 16.7 56 56 WNW 7 11 29.94 1014 10 16 0.00 0.00
12:52 pm 12:52 Sunny 81 27.2 64 17.8 57 57 WSW 8 13 29.94 1014 10 16 0.00 0.00
1:52 pm 13:52 Sunny 82 27.8 64 17.8 55 55 WSW 7 11 29.93 1014 10 16 0.00 0.00
2:52 pm 14:52 Partly Cloudy 83 28.3 66 18.9 57 57 VRB 7 11 29.92 1013 10 16 0.00 0.00
3:52 pm 15:52 Sunny 81 27.2 64 17.8 57 57 SW 7 11 29.91 1013 10 16 0.00 0.00
4:52 pm 16:52 Sunny 83 28.3 62 16.7 49 49 Calm 29.89 1012 10 16 0.00 0.00
5:52 pm 17:52 Sunny 83 28.3 63 17.2 51 51 WSW 5 7 29.89 1012 10 16 0.00 0.00
6:52 pm 18:52 Sunny 81 27.2 65 18.3 58 58 SW 6 9 29.88 1012 10 16 0.00 0.00
7:52 pm 19:52 Sunny 76 24.4 65 18.3 69 69 SSW 6 9 29.88 1012 10 16 0.00 0.00
8:52 pm 20:52 Clear 73 22.8 63 17.2 71 71 SW 6 9 29.88 1012 10 16 0.00 0.00
9:52 pm 21:52 Clear 71 21.7 62 16.7 73 73 SSW 6 9 29.90 1013 10 16 0.00 0.00
10:52 pm 22:52 Clear 69 20.6 62 16.7 78 78 S 7 11 29.91 1013 10 16 0.00 0.00
11:52 pm 23:52 Clear 69 20.6 62 16.7 78 78 SW 6 9 29.91 1013 10 16 0.00 0.00

Powered by AerisWeather